Date_and_time,latitude,longitude,wind_speed,RelWindDirFrom,WindDirFrom,air_pressure,air_temperature,relative_humidity,Temp,platform_speed_wrt_ground,air_pressure_at_mean_sea_level,platform_orientation
2018-04-25 14:10,50.6304433333333,-96.9807583333333,9.9,13.0,210,986.91,7.4,54,4.17,0.0,1014.22,28.9
2018-04-25 14:20,50.6304433333333,-96.9807583333333,10.1,15.4,211,986.72,8.2,51,4.17,0.0,1013.98,28.9
2018-04-25 14:30,50.6304433333333,-96.9807583333333,11.6,17.8,215,986.56,9.3,47,4.15,0.0,1013.76,28.9
2018-04-25 14:40,50.6304416666667,-96.9807583333333,13.7,19.6,219,986.45,10.4,44,4.14,0.0,1013.58,28.9
2018-04-25 14:50,50.6304416666667,-96.9807583333333,13.2,18.8,218,986.25,10.8,43,4.13,0.0,1013.33,28.9
2018-04-25 15:00,50.6304433333333,-96.98076,13.9,19.6,221,986.04,11.1,42,4.12,0.0,1013.07,0.0
2018-04-25 15:10,50.6304433333333,-96.98076,13.5,20.8,217,985.84,11.4,42,4.09,0.0,1012.84,0.0
2018-04-25 15:20,50.6304433333333,-96.9807583333333,15.5,21.7,217,985.71,11.8,41,4.07,0.0,1012.66,0.0
2018-04-25 15:30,50.6304433333333,-96.98076,13.7,18.6,214,985.53,12.2,40,4.07,0.0,1012.44,0.0
2018-04-25 15:40,50.630445,-96.98076,13.5,18.5,222,985.43,12.8,39,3.99,0.0,1012.29,0.0
2018-04-25 15:50,50.630445,-96.98076,13.3,19.7,218,985.27,13.4,38,3.96,0.0,1012.06,0.0
2018-04-25 16:00,50.630445,-96.9807583333333,12.6,22.5,223,985.13,14.0,36,4.01,0.0,1011.86,0.0
2018-04-25 16:10,50.630445,-96.9807583333333,14.6,21.7,224,984.99,14.8,34,4.03,0.0,1011.63,0.0
2018-04-25 16:20,50.6304483333333,-96.980745,16.4,21.7,220,984.83,15.2,33,4.02,0.0,1011.41,0.0
2018-04-25 16:30,50.6304566666667,-96.9807566666667,14.7,23.5,216,984.63,15.3,33,4.02,0.0,1011.14,0.0
2018-04-25 16:40,50.6304466666667,-96.9807433333333,16.1,23.9,210,984.35,15.2,33,3.97,0.0,1010.84,0.0
2018-04-25 16:50,50.63043,-96.98074,18.8,28.0,226,984.20,15.9,30,3.94,0.0,1010.64,0.0
2018-04-25 17:00,50.6304416666667,-96.98075,17.3,27.7,217,983.99,16.0,30,3.93,0.0,1010.40,90.0
2018-04-25 17:10,50.6304383333333,-96.9807483333333,19.9,30.3,220,983.86,16.2,30,3.82,0.0,1010.24,90.0
2018-04-25 17:20,50.6304383333333,-96.98075,19.5,26.4,219,983.71,16.4,29,3.80,0.0,1010.06,90.0
2018-04-25 17:30,50.6304383333333,-96.98075,18.4,27.3,227,983.40,16.7,28,3.83,0.0,1009.70,90.0
2018-04-25 17:40,50.6304383333333,-96.9807516666667,18.1,24.4,213,982.99,16.7,28,3.72,0.0,1009.25,90.0
2018-04-25 17:50,50.63044,-96.9807533333333,17.8,28.9,222,982.80,17.0,28,3.72,0.0,1009.01,90.0
2018-04-25 18:00,50.63044,-96.980755,16.8,24.4,225,982.57,17.4,27,3.81,0.0,1008.73,90.0
2018-04-25 18:10,50.63044,-96.980755,20.9,32.6,226,982.39,17.7,26,3.88,0.0,1008.51,90.0
2018-04-25 18:20,50.630445,-96.9807583333333,18.3,26.7,217,982.00,17.6,26,3.83,0.0,1008.11,90.0
2018-04-25 18:30,50.630445,-96.9807583333333,18.9,28.4,215,981.71,17.5,26,3.80,0.0,1007.82,90.0
2018-04-25 18:40,50.630445,-96.9807566666667,19.7,28.2,211,981.52,17.8,25,3.80,0.0,1007.58,90.0
2018-04-25 18:50,50.6304433333333,-96.9807533333333,20.1,28.8,214,981.49,17.8,24,3.81,0.0,1007.55,90.0
2018-04-25 19:00,50.6304433333333,-96.9807533333333,20.6,28.3,219,981.42,18.3,22,3.91,0.0,1007.44,90.0
2018-04-25 19:10,50.6304433333333,-96.9807516666667,20.1,29.3,224,981.21,18.4,22,4.14,0.0,1007.21,90.0
2018-04-25 19:20,50.6304433333333,-96.98075,21.1,31.3,218,981.07,18.3,21,4.39,0.0,1007.05,90.0
2018-04-25 19:30,50.6304383333333,-96.9807316666667,18.4,25.7,217,980.91,18.1,21,4.47,0.0,1006.90,90.0
2018-04-25 19:40,50.6304433333333,-96.9807566666667,19.9,29.9,210,980.72,17.9,22,4.63,0.0,1006.70,90.0
2018-04-25 19:50,50.6304466666667,-96.980745,17.9,28.4,199,980.52,16.6,25,4.62,0.0,1006.54,90.0
2018-04-25 20:00,50.630445,-96.9807466666667,19.5,28.4,210,980.67,17.5,22,4.74,0.0,1006.64,90.0
2018-04-25 20:10,50.6304466666667,-96.98075,16.9,25.5,214,980.66,17.8,22,4.89,0.0,1006.61,90.0
2018-04-25 20:20,50.630455,-96.980785,17.5,26.2,212,980.52,18.2,21,4.76,0.0,1006.46,90.0
2018-04-25 20:30,50.6304466666667,-96.98074,15.5,22.9,222,980.37,18.4,21,4.78,0.0,1006.28,90.0
2018-04-25 20:40,50.630445,-96.9807533333333,15.0,24.6,220,980.20,18.8,20,4.85,0.0,1006.09,90.0
2018-04-25 20:50,50.63044,-96.9807533333333,14.9,25.1,216,980.04,18.4,20,4.86,0.0,1005.92,90.0
2018-04-25 21:00,50.63044,-96.980755,11.9,23.1,229,979.96,18.7,19,4.76,0.0,1005.82,0.0
2018-04-25 21:10,50.63044,-96.9807533333333,16.7,23.8,232,979.93,18.9,18,4.77,0.0,1005.78,0.0
2018-04-25 21:20,50.6304383333333,-96.9807533333333,16.7,24.3,222,979.76,18.8,18,5.05,0.0,1005.63,0.0
2018-04-25 21:30,50.6304366666667,-96.9807533333333,15.6,22.5,222,979.70,18.6,18,4.81,0.0,1005.58,0.0
2018-04-25 21:40,50.6304366666667,-96.980755,13.4,20.8,220,979.56,18.7,19,4.84,0.0,1005.50,0.0
2018-04-25 21:50,50.6304366666667,-96.980755,14.7,21.2,220,979.42,18.7,19,4.85,0.0,1005.31,0.0
2018-04-25 22:00,50.6304383333333,-96.9807566666667,13.8,21.1,226,979.34,18.8,19,4.83,0.0,1005.20,270.0
2018-04-25 22:10,50.6304383333333,-96.9807566666667,14.6,19.4,224,979.19,18.9,19,4.89,0.0,1005.03,270.0
2018-04-25 22:20,50.6304316666667,-96.980775,13.3,19.7,232,979.10,19.0,19,4.74,0.0,1004.93,270.0
2018-04-25 22:30,50.6304333333333,-96.98076,10.6,15.9,220,979.01,18.7,20,4.66,0.0,1004.83,270.0
2018-04-25 22:40,50.6304366666667,-96.9807566666667,11.2,16.5,219,978.91,18.7,20,4.68,0.0,1004.74,270.0
2018-04-25 22:50,50.6304383333333,-96.9807516666667,11.2,15.8,217,978.88,18.8,20,4.78,0.0,1004.70,270.0
2018-04-25 23:00,50.6304116666667,-96.9807683333333,9.2,14.1,256,978.97,19.1,21,4.89,0.0,1004.77,216.2
2018-04-25 23:10,50.6303916666667,-96.98075,9.6,16.0,264,979.06,19.1,23,4.64,0.0,1004.86,216.2
2018-04-25 23:20,50.6304166666667,-96.980755,10.3,16.3,259,979.16,18.9,24,4.62,0.0,1004.98,216.2
2018-04-25 23:30,50.6304183333333,-96.98076,8.9,14.5,259,979.18,18.8,25,4.59,0.0,1005.00,216.2
2018-04-25 23:40,50.6304216666667,-96.9807583333333,7.9,16.7,275,979.18,18.8,26,4.79,0.0,1005.00,216.2
